Location: *
(37.9500°N, 27.3666°E)
Time: 15:34:52
(UTC+00:00)

In-Cosmos 22 Rocket - Pass Details

Date: 24 October 2021
Orbit: 790 x 888 km, 81.2° (Epoch: 06 December)

Event Time Altitude Azimuth Distance (km) Brightness Sun altitude
Rises 16:51:50 0° 353° (N) 3,298 7.4 -18.6°
Reaches altitude 10° 16:54:14 10° 356° (N) 2,362 6.6 -19.0°
Maximum altitude 16:59:32 70° 80° (E) 840 3.9 -20.1°
Drops below altitude 10° 17:04:49 10° 164° (SSE) 2,360 6.4 -21.1°
Sets 17:07:13 0° 167° (SSE) 3,295 7.1 -21.6°
